{"data":{"norad_id":49192,"epoch":"2026-05-24T23:56:15.466272Z","epoch_age_seconds":65376,"freshness":"FRESH","line1":"1 49192U 21083G   26144.99740123 -.00000191  00000+0 -55872-3 0  9993","line2":"2 49192  87.8937 324.8565 0001557  78.6383 281.4921 13.13468692227871","mean_motion":13.13468692,"eccentricity":0.0001557,"inclination_deg":87.8937,"raan_deg":324.8565,"arg_perigee_deg":78.6383,"mean_anomaly_deg":281.4921,"bstar":-0.00055872,"rev_number":22787,"period_min":109.63337069019,"perigee_km":1208.5890002513,"apogee_km":1210.9518746273,"semimajor_km":7587.9074374393,"source":"CELESTRAK","updated_at":"2026-05-25T13:38:22.489978Z"}}